sat.trackr.live / text

‹ back to catalog

GHOST-3

NORAD 56958 · 2023-084AC

PAYLOAD ACTIVE UNKNOWN

§ Identity

Operator
Country
US
Launch date
2023-06-12
Launch site
AFWTR
Launch vehicle
Mass (kg)
RCS (m²)

External: N2YO · Heavens-Above · Gunter

§ Orbital elements

Epoch: 2026-09-21T09:22:02.023680Z

Period
92.84 min
Inclination
97.6344°
Eccentricity
0.0005327
Mean motion
15.51019472 rev/d
Perigee alt
410.1 km
Apogee alt
417.4 km
Semi-major
6,791.9 km
B*
2.7162e-4
RAAN
58.4306°
Arg perigee
301.5128°
Mean anomaly
58.5603°
Rev number
18,291

§ Raw data

GHOST-31 56958U 23084AC  26264.39030120  .00015696  00000+0  27162-3 0  99952 56958  97.6344  58.4306 0005327 301.5128  58.5603 15.51019472182914

JSON: /api/v1/satellites/56958 · /tle

For live sub-satellite position, see the globe view (requires WebGL).

§ Visibility from observer

Set your observer location to see the next 7 days of passes ≥ 10°. The values pass through the URL so the page stays shareable.

No JS? Fill the form by hand. The geolocation button needs JavaScript.

§ Radio — SatNOGS DB

ModeDescriptionDownlinkUplink
GFSK Mode U - GFSK38k4 - TT&C downlink 400.500 MHz

1 transmitter · refreshed weekly from db.satnogs.org